Sable Island, Nova Scotia

5:25 PM ADT on October 21, 2017 (GMT -0300)
Sable Island

Weather History for CWSA - October, 2012

Change the Weather History Date:

Wednesday, October 31, 2012

  Actual Average Record
Temperature  
Mean Temperature 59 °F -  
Max Temperature 62 °F 49 °F 62 °F (2012)
Min Temperature 56 °F 40 °F 35 °F (1999)
Degree Days  
Heating Degree Days 6    
Growing Degree Days 9 (Base 50)    
Moisture  
Dew Point 56 °F    
Average Humidity 90    
Maximum Humidity 100    
Minimum Humidity 74    
Precipitation  
Precipitation 0.87 in 0.19 in - ()
Sea Level Pressure  
Sea Level Pressure 29.91 in    
Wind  
Wind Speed 19 mph ()    
Max Wind Speed 25 mph    
Max Gust Speed 30 mph    
Visibility 2.8 miles    
Events Rain    
Averages and records for this station are not official NWS values.
T = Trace of Precipitation, MM = Missing Value Source: Averaged Metar Reports

Daily Weather History Graph

Daily Weather History Graph

Search for Another Location

Airport or City:

Trip Planner

Search our weather history database for the weather conditions in past years. The results will help you decide how hot, cold, wet, or windy it might be!

Date:

Astronomy

Oct. 31, 2012 Rise Set
Actual Time 7:35 AM ADT 5:51 PM ADT
Civil Twilight 7:05 AM ADT 6:21 PM ADT
Nautical Twilight 6:31 AM ADT 6:55 PM ADT
Astronomical Twilight 5:58 AM ADT 7:28 PM ADT
Moon 6:54 PM ADT (10/31) 9:15 AM ADT (10/31)
Length of Visible Light 11h 15m
Length of Day
10h 15m
Full, 97% of the Moon is Illuminated
Oct 31
Full
Nov 6
Last Quarter
Nov 13
New
Nov 20
First Quarter
Nov 28
Full

Hourly Weather History & Observations

Time (ADT) Temp. Dew Point Humidity Pressure Visibility Wind Dir Wind Speed Gust Speed Precip Events Conditions
12:00 AM 56 °F 53 °F 87% 30.13 in 4 mi ESE 18.4 mph - -  
12:00 AM 57.2 °F 53.6 °F 88% 30.13 in 4.0 mi ESE 19.6 mph - N/A   Partly Cloudy
1:00 AM 57.2 °F 51.8 °F 82% 30.11 in 5.0 mi ESE 18.4 mph 29.9 mph N/A   Clear
2:00 AM 57.2 °F 51.8 °F 82% 30.10 in 5.0 mi ESE 19.6 mph - N/A   Clear
3:00 AM 57 °F 53 °F 81% 30.09 in 4 mi ESE 17.3 mph - -  
3:00 AM 57.2 °F 53.6 °F 88% 30.09 in 4.0 mi ESE 18.4 mph - N/A   Clear
4:00 AM 57.2 °F 53.6 °F 88% 30.07 in 4.0 mi ESE 21.9 mph 28.8 mph N/A   Overcast
5:00 AM 57.2 °F 53.6 °F 88% 30.06 in 4.0 mi ESE 19.6 mph - N/A   Scattered Clouds
6:00 AM 57 °F 53 °F 83% 30.06 in 4 mi ESE 19.6 mph - -  
6:00 AM 57.2 °F 53.6 °F 88% 30.06 in 4.0 mi ESE 19.6 mph - N/A   Clear
7:00 AM 57.2 °F 53.6 °F 88% 30.04 in 4.0 mi ESE 18.4 mph - N/A   Mostly Cloudy
8:00 AM 57.2 °F 53.6 °F 88% 30.04 in 4.0 mi ESE 20.7 mph - N/A   Overcast
9:00 AM 59 °F 55 °F 82% 30.03 in 4 mi ESE 20.7 mph - -  
9:00 AM 59.0 °F 55.4 °F 88% 30.03 in 4.0 mi ESE 21.9 mph - N/A   Mostly Cloudy
10:00 AM 59.0 °F 53.6 °F 82% 30.03 in 4.0 mi ESE 19.6 mph - N/A   Overcast
10:10 AM 59.0 °F 55.4 °F 88% 30.03 in 4.0 mi ESE 21.9 mph - N/A Rain Light Rain
10:24 AM 59.0 °F 55.4 °F 88% 30.02 in 4.0 mi ESE 21.9 mph - N/A   Overcast
11:00 AM 59.0 °F 55.4 °F 88% 30.01 in 4.0 mi ESE 21.9 mph 27.6 mph N/A   Overcast
12:00 PM 62 °F 56 °F 74% 29.99 in 4 mi ESE 25.3 mph - -   Overcast
12:00 PM 60.8 °F 55.4 °F 82% 29.99 in 4.0 mi ESE 24.2 mph 29.9 mph N/A   Overcast
1:00 PM 60.8 °F 55.4 °F 82% 29.96 in 4.0 mi ESE 24.2 mph - N/A   Overcast
2:00 PM 60.8 °F 55.4 °F 82% 29.94 in 4.0 mi ESE 23.0 mph - N/A   Overcast
3:00 PM 61 °F 56 °F 77% 29.92 in 4 mi ESE 23.0 mph - -   Overcast
3:00 PM 60.8 °F 55.4 °F 82% 29.92 in 4.0 mi ESE 23.0 mph - N/A   Overcast
3:02 PM 60.8 °F 55.4 °F 82% 29.92 in 4.0 mi ESE 21.9 mph 27.6 mph N/A   Overcast
3:21 PM 60.8 °F 55.4 °F 82% 29.92 in 3.5 mi ESE 16.1 mph 23.0 mph N/A   Mostly Cloudy
3:45 PM 59.0 °F 55.4 °F 88% 29.92 in 3.5 mi ESE 17.3 mph - N/A Rain Light Rain
3:56 PM 59.0 °F 55.4 °F 88% 29.91 in 2.5 mi ESE 18.4 mph - N/A Rain Light Rain
4:00 PM 59.0 °F 57.2 °F 94% 29.92 in 2.0 mi ESE 19.6 mph - N/A Rain Light Rain
4:18 PM 59.0 °F 57.2 °F 94% 29.91 in 2.5 mi ESE 16.1 mph 21.9 mph N/A   Overcast
4:22 PM 59.0 °F 57.2 °F 94% 29.91 in 3.0 mi SE 16.1 mph 21.9 mph N/A   Overcast
4:27 PM 59.0 °F 57.2 °F 94% 29.91 in 3.0 mi ESE 21.9 mph - N/A   Overcast
4:38 PM 59.0 °F 57.2 °F 94% 29.90 in 3.0 mi ESE 20.7 mph - N/A   Overcast
5:00 PM 59.0 °F 57.2 °F 94% 29.90 in 3.0 mi ESE 19.6 mph - N/A   Overcast
5:09 PM 59.0 °F 57.2 °F 94% 29.89 in 2.5 mi ESE 19.6 mph - N/A   Overcast
5:12 PM 59.0 °F 57.2 °F 94% 29.89 in 2.5 mi ESE 21.9 mph - N/A   Overcast
5:13 PM 59.0 °F 57.2 °F 94% 29.89 in 2.1 mi ESE 23.0 mph - N/A Rain Light Rain
5:36 PM 59.0 °F 57.2 °F 94% 29.88 in 2.5 mi ESE 19.6 mph - N/A   Overcast
6:00 PM 59.0 °F 57.2 °F 94% 29.87 in 2.2 mi ESE 19.6 mph - N/A   Overcast
6:06 PM 59.0 °F 57.2 °F 94% 29.86 in 2.2 mi ESE 23.0 mph - N/A   Overcast
7:00 PM 59.0 °F 57.2 °F 94% 29.87 in 2.5 mi ESE 24.2 mph - N/A   Overcast
7:32 PM 59.0 °F 57.2 °F 94% 29.85 in 2.2 mi ESE 20.7 mph - N/A   Overcast
8:00 PM 59.0 °F 57.2 °F 94% 29.84 in 2.1 mi ESE 24.2 mph - N/A   Overcast
8:03 PM 59.0 °F 57.2 °F 94% 29.83 in 2.1 mi ESE 23.0 mph - N/A   Overcast
8:11 PM 59.0 °F 57.2 °F 94% 29.83 in 2.1 mi ESE 23.0 mph - N/A   Overcast
8:20 PM 59.0 °F 59.0 °F 100% 29.82 in 2.1 mi ESE 21.9 mph - N/A   Overcast
8:27 PM 59.0 °F 57.2 °F 94% 29.82 in 2.1 mi ESE 20.7 mph - N/A   Overcast
9:00 PM 59 °F 57 °F 92% 29.81 in 2 mi ESE 19.6 mph - -   Overcast
9:00 PM 59.0 °F 57.2 °F 94% 29.81 in 2.1 mi ESE 20.7 mph - N/A   Overcast
9:09 PM 59.0 °F 57.2 °F 94% 29.81 in 2.1 mi ESE 21.9 mph - N/A   Overcast
9:20 PM 59.0 °F 57.2 °F 94% 29.80 in 2.1 mi ESE 21.9 mph 27.6 mph N/A Rain Light Rain
9:54 PM 59.0 °F 57.2 °F 94% 29.78 in 2.4 mi ESE 21.9 mph - N/A   Overcast
10:00 PM 59.0 °F 57.2 °F 94% 29.79 in 2.2 mi ESE 21.9 mph - N/A   Overcast
10:02 PM 59.0 °F 57.2 °F 94% 29.78 in 2.2 mi ESE 23.0 mph - N/A   Light Drizzle
10:05 PM 59.0 °F 57.2 °F 94% 29.78 in 2.4 mi ESE 23.0 mph - N/A Rain Light Rain
10:12 PM 59.0 °F 57.2 °F 94% 29.78 in 1.5 mi ESE 23.0 mph 28.8 mph N/A Rain Light Rain
10:13 PM 59.0 °F 57.2 °F 94% 29.78 in 1.4 mi ESE 21.9 mph 28.8 mph N/A Rain Light Rain
10:15 PM 59.0 °F 57.2 °F 94% 29.78 in 1.1 mi ESE 24.2 mph - N/A Rain Rain
10:18 PM 59.0 °F 57.2 °F 94% 29.78 in 1.0 mi ESE 23.0 mph 28.8 mph N/A Rain Rain
10:38 PM 59.0 °F 57.2 °F 94% 29.77 in 1.0 mi ESE 21.9 mph - N/A Rain Rain
10:46 PM 60.8 °F 59.0 °F 94% 29.76 in 1.0 mi ESE 20.7 mph - N/A Rain Rain
11:00 PM 60.8 °F 57.2 °F 88% 29.77 in 0.8 mi SE 17.3 mph 24.2 mph N/A Rain Heavy Rain
11:06 PM 60.8 °F 59.0 °F 94% 29.76 in 0.8 mi SE 17.3 mph 24.2 mph N/A Rain Heavy Rain
11:19 PM 60.8 °F 59.0 °F 94% 29.75 in 1.0 mi SE 19.6 mph - N/A Rain Rain
11:24 PM 60.8 °F 59.0 °F 94% 29.75 in 1.5 mi ESE 17.3 mph 23.0 mph N/A Rain Rain
11:44 PM 60.8 °F 59.0 °F 94% 29.75 in 2.0 mi ESE 18.4 mph - N/A Rain Light Rain